Overview Statistics Trail Chart Weather Telemetry Raw packets
 

This is the latest recevied weather packets stored in our database for station/object KC2GYU. If no packets are shown the sender has not sent any weather packets the latest 10 day(s).

<< 89 90 91 92 93 94 95 >>
Time Temp. Humidity Pressure Rain* Wind** Luminosity Snow
1777387274 17.78° C 52% 1022.8 hPa 0 mm - 598 W/m² -
1777386969 17.22° C 55% 1023 hPa 0 mm - 529 W/m² -
1777386666 16.67° C 57% 1022.7 hPa 0 mm - 557 W/m² -
1777386363 17.22° C 54% 1022.6 hPa 0 mm - 557 W/m² -
1777386061 17.78° C 54% 1022.8 hPa 0 mm - 553 W/m² -
1777385757 17.78° C 52% 1022.8 hPa 0 mm - 537 W/m² -
1777385454 17.78° C 51% 1023 hPa 0 mm - 526 W/m² -
1777385150 16.67° C 54% 1022.8 hPa 0 mm - 513 W/m² -
1777384846 16.67° C 54% 1022.8 hPa 0 mm - 422 W/m² -
1777384544 16.67° C 57% 1023 hPa 0 mm - 509 W/m² -
1777384238 16.11° C 57% 1023 hPa 0 mm - 508 W/m² -
1777383934 16.11° C 57% 1023.3 hPa 0 mm - 494 W/m² -
1777383630 16.11° C 57% 1023.1 hPa 0 mm - 465 W/m² -
1777383327 16.11° C 58% 1023.3 hPa 0 mm - 453 W/m² -
1777383024 16.11° C 63% 1023.3 hPa 0 mm - 436 W/m² -
1777382720 15.56° C 65% 1023.2 hPa 0 mm - 431 W/m² -
1777382415 15.56° C 69% 1023.3 hPa 0 mm - 400 W/m² -
1777382112 15° C 71% 1023.1 hPa 0 mm - 401 W/m² -
1777381803 15° C 74% 1023.3 hPa 0 mm - 379 W/m² -
1777381502 15° C 75% 1023.1 hPa 0 mm - 363 W/m² -
1777381198 15° C 75% 1023 hPa 0 mm - 365 W/m² -
1777380895 14.44° C 77% 1023.1 hPa 0 mm - 390 W/m² -
1777380593 14.44° C 77% 1023.2 hPa 0 mm - 370 W/m² -
1777380288 14.44° C 76% 1023.2 hPa 0 mm - 347 W/m² -
1777379985 13.33° C 80% 1023.1 hPa 0 mm - 317 W/m² -

* Rain latest hour (hover to see other rain measurements)
** Current wind speed in m/s (hover to see current wind gust speed)